MEV-2

Last updated on Tue Oct 15 2024 00:02:41 GMT+0000 (Coordinated Universal Time)

1 46113U 20056B 24287.42063222 -.00000012 00000+0 00000+0 0 9994 2 46113 0.0241 104.2798 0000960 133.1122 295.5598 1.00272373 74428
UTC large
Height (km)
Speed (km/s)
/
Latitude / Longitude
Inclination (degrees)
Orbital Period (minutes)
Azimuth
Elevation
Range (km)
Doppler Factor

Next 0 passes for location: London (51.5072 / 0.1276)

Sorry there are no passes over London.